• In Russia
  • List of Countries
  • For 7 days
  • Water Temperature
  • Weather Map
  • Weather Widgets
  • user-avatar
    Login

    Hourly Weather Goiania

    Today, 28 May, Thursday

    Time Temperature Precipitation Wind Pressure Humidity
    00:00 +14°C° 0 mm 1 mps 699 mmHg 86%
    01:00 +14°C° 0 mm 1 mps 699 mmHg 86%
    02:00 +14°C° 0 mm 1 mps 699 mmHg 86%
    03:00 +13°C° 0 mm 1 mps 699 mmHg 87%
    04:00 +13°C° 0 mm 1 mps 699 mmHg 87%
    05:00 +13°C° 0 mm 1 mps 699 mmHg 87%
    06:00 +13°C° 0 mm 1 mps 699 mmHg 87%
    07:00 +15°C° 0 mm 1 mps 700 mmHg 81%
    08:00 +17°C° 0 mm 2 mps 700 mmHg 74%
    09:00 +19°C° 0 mm 2 mps 701 mmHg 68%
    10:00 +21°C° 0 mm 2 mps 701 mmHg 62%
    11:00 +24°C° 0 mm 1 mps 701 mmHg 55%
    12:00 +27°C° 0 mm 1 mps 702 mmHg 49%
    13:00 +27°C° 0 mm 1 mps 701 mmHg 46%
    14:00 +28°C° 0 mm 1 mps 701 mmHg 44%
    15:00 +26°C° 0 mm 0 mps 700 mmHg 42%
    16:00 +24°C° 0 mm 0 mps 700 mmHg 50%
    17:00 +24°C° 0 mm 1 mps 699 mmHg 58%
    18:00 +21°C° 0 mm 1 mps 699 mmHg 66%
    19:00 +20°C° 0 mm 1 mps 699 mmHg 69%
    20:00 +19°C° 0 mm 1 mps 700 mmHg 71%
    21:00 +19°C° 0 mm 1 mps 700 mmHg 73%
    22:00 +18°C° 0 mm 1 mps 700 mmHg 76%
    23:00 +16°C° 0 mm 1 mps 700 mmHg 78%

    Tomorrow, 29 May, Friday

    Time Temperature Precipitation Wind Pressure Humidity
    00:00 +16°C° 0 mm 2 mps 700 mmHg 80%
    01:00 +15°C° 0 mm 2 mps 700 mmHg 82%
    02:00 +15°C° 0 mm 2 mps 699 mmHg 84%
    03:00 +15°C° 0 mm 2 mps 699 mmHg 86%
    04:00 +14°C° 0 mm 2 mps 699 mmHg 86%
    05:00 +14°C° 0 mm 2 mps 700 mmHg 85%
    06:00 +14°C° 0 mm 2 mps 700 mmHg 85%
    07:00 +16°C° 0 mm 2 mps 700 mmHg 78%
    08:00 +18°C° 0 mm 2 mps 701 mmHg 72%
    09:00 +19°C° 0 mm 2 mps 701 mmHg 65%
    10:00 +21°C° 0 mm 2 mps 701 mmHg 60%
    11:00 +24°C° 0 mm 2 mps 701 mmHg 54%
    12:00 +26°C° 0 mm 2 mps 702 mmHg 49%
    13:00 +27°C° 0 mm 2 mps 701 mmHg 48%
    14:00 +27°C° 0 mm 2 mps 701 mmHg 47%
    15:00 +27°C° 0 mm 2 mps 700 mmHg 46%
    16:00 +25°C° 0 mm 2 mps 700 mmHg 53%
    17:00 +23°C° 0 mm 2 mps 700 mmHg 60%
    18:00 +21°C° 0 mm 1 mps 699 mmHg 67%
    19:00 +19°C° 0 mm 2 mps 699 mmHg 71%
    20:00 +18°C° 0 mm 2 mps 700 mmHg 76%
    21:00 +17°C° 0 mm 2 mps 700 mmHg 80%
    22:00 +17°C° 0 mm 2 mps 700 mmHg 82%
    23:00 +17°C° 0 mm 2 mps 700 mmHg 85%

    Day after tomorrow, 30 May, Saturday

    Time Temperature Precipitation Wind Pressure Humidity
    00:00 +16°C° 0 mm 2 mps 700 mmHg 87%
    01:00 +16°C° 0 mm 2 mps 700 mmHg 88%
    02:00 +15°C° 0 mm 2 mps 700 mmHg 89%
    03:00 +15°C° 0 mm 2 mps 700 mmHg 90%
    04:00 +15°C° 0 mm 2 mps 699 mmHg 89%
    05:00 +14°C° 0 mm 2 mps 699 mmHg 89%
    06:00 +14°C° 0 mm 2 mps 699 mmHg 88%
    07:00 +16°C° 0 mm 2 mps 700 mmHg 81%
    08:00 +18°C° 0 mm 3 mps 701 mmHg 74%
    09:00 +19°C° 0 mm 3 mps 701 mmHg 68%
    10:00 +21°C° 0 mm 3 mps 701 mmHg 61%
    11:00 +24°C° 0 mm 2 mps 701 mmHg 55%
    12:00 +26°C° 0 mm 2 mps 701 mmHg 49%
    13:00 +27°C° 0 mm 1 mps 701 mmHg 46%
    14:00 +27°C° 0 mm 1 mps 700 mmHg 43%
    15:00 +26°C° 0 mm 0 mps 700 mmHg 41%
    16:00 +24°C° 0 mm 0 mps 699 mmHg 48%
    17:00 +23°C° 0 mm 1 mps 699 mmHg 56%
    18:00 +21°C° 0 mm 1 mps 699 mmHg 63%
    19:00 +20°C° 0 mm 1 mps 699 mmHg 66%
    20:00 +19°C° 0 mm 1 mps 699 mmHg 69%
    21:00 +18°C° 0 mm 1 mps 699 mmHg 73%
    22:00 +18°C° 0 mm 1 mps 699 mmHg 75%
    23:00 +16°C° 0 mm 1 mps 699 mmHg 78%

    31 May, Sunday

    Time Temperature Precipitation Wind Pressure Humidity
    00:00 +16°C° 0 mm 1 mps 699 mmHg 81%
    01:00 +16°C° 0 mm 1 mps 699 mmHg 83%
    02:00 +15°C° 0 mm 1 mps 699 mmHg 84%
    03:00 +15°C° 0 mm 1 mps 699 mmHg 86%
    04:00 +15°C° 0 mm 1 mps 699 mmHg 86%
    05:00 +14°C° 0 mm 1 mps 699 mmHg 86%
    06:00 +14°C° 0 mm 1 mps 699 mmHg 87%
    07:00 +16°C° 0 mm 2 mps 700 mmHg 80%
    08:00 +18°C° 0 mm 2 mps 701 mmHg 74%
    09:00 +20°C° 0 mm 2 mps 701 mmHg 68%
    10:00 +23°C° 0 mm 2 mps 701 mmHg 61%
    11:00 +25°C° 0 mm 2 mps 701 mmHg 55%
    12:00 +27°C° 0 mm 1 mps 701 mmHg 48%
    13:00 +27°C° 0 mm 1 mps 701 mmHg 46%
    14:00 +28°C° 0 mm 1 mps 700 mmHg 44%
    15:00 +28°C° 0 mm 1 mps 700 mmHg 41%
    16:00 +24°C° 0 mm 0 mps 699 mmHg 49%
    17:00 +22°C° 0 mm 0 mps 699 mmHg 56%
    18:00 +19°C° 0 mm 0 mps 699 mmHg 64%
    19:00 +19°C° 0 mm 0 mps 699 mmHg 66%
    20:00 +18°C° 0 mm 0 mps 699 mmHg 69%
    21:00 +17°C° 0 mm 0 mps 699 mmHg 71%
    22:00 +18°C° 0 mm 1 mps 699 mmHg 73%
    23:00 +18°C° 0 mm 1 mps 699 mmHg 74%

    1 June, Monday

    Time Temperature Precipitation Wind Pressure Humidity
    00:00 +18°C° 0 mm 1 mps 699 mmHg 75%
    01:00 +16°C° 0 mm 1 mps 699 mmHg 76%
    02:00 +16°C° 0 mm 1 mps 699 mmHg 77%
    03:00 +16°C° 0 mm 1 mps 699 mmHg 78%
    04:00 +15°C° 0 mm 1 mps 699 mmHg 79%
    05:00 +15°C° 0 mm 1 mps 699 mmHg 80%
    06:00 +15°C° 0 mm 1 mps 699 mmHg 81%
    07:00 +18°C° 0 mm 1 mps 700 mmHg 75%
    08:00 +20°C° 0 mm 1 mps 700 mmHg 69%
    09:00 +22°C° 0 mm 1 mps 701 mmHg 64%
    10:00 +24°C° 0 mm 1 mps 701 mmHg 57%
    11:00 +26°C° 0 mm 1 mps 701 mmHg 51%
    12:00 +28°C° 0 mm 1 mps 701 mmHg 45%
    13:00 +28°C° 0 mm 1 mps 700 mmHg 44%
    14:00 +29°C° 0 mm 1 mps 700 mmHg 42%
    15:00 +29°C° 0 mm 1 mps 699 mmHg 41%
    16:00 +27°C° 0 mm 1 mps 699 mmHg 49%
    17:00 +25°C° 0 mm 1 mps 698 mmHg 57%
    18:00 +23°C° 0 mm 1 mps 698 mmHg 66%
    19:00 +20°C° 0 mm 0 mps 698 mmHg 69%
    20:00 +19°C° 0 mm 0 mps 699 mmHg 72%
    21:00 +18°C° 0 mm 0 mps 699 mmHg 75%
    22:00 +18°C° 0 mm 0 mps 699 mmHg 77%
    23:00 +17°C° 0 mm 0 mps 699 mmHg 78%

    2 June, Tuesday

    Time Temperature Precipitation Wind Pressure Humidity
    00:00 +17°C° 0 mm 0 mps 699 mmHg 79%
    01:00 +17°C° 0 mm 0 mps 699 mmHg 80%
    02:00 +16°C° 0 mm 0 mps 699 mmHg 81%
    03:00 +16°C° 0 mm 0 mps 699 mmHg 82%
    04:00 +16°C° 0 mm 0 mps 699 mmHg 82%
    05:00 +16°C° 0 mm 0 mps 699 mmHg 82%
    06:00 +18°C° 0 mm 1 mps 699 mmHg 83%
    07:00 +18°C° 0 mm 0 mps 699 mmHg 77%
    08:00 +20°C° 0 mm 0 mps 700 mmHg 71%
    09:00 +22°C° 0 mm 0 mps 701 mmHg 65%
    10:00 +25°C° 0 mm 1 mps 701 mmHg 59%
    11:00 +27°C° 0 mm 1 mps 701 mmHg 53%
    12:00 +28°C° 0 mm 1 mps 701 mmHg 48%
    13:00 +29°C° 0 mm 1 mps 700 mmHg 47%
    14:00 +29°C° 0 mm 1 mps 700 mmHg 46%
    15:00 +29°C° 0 mm 1 mps 699 mmHg 45%
    16:00 +27°C° 0 mm 1 mps 699 mmHg 52%
    17:00 +25°C° 0 mm 1 mps 699 mmHg 58%
    18:00 +24°C° 0 mm 1 mps 699 mmHg 65%
    19:00 +23°C° 0 mm 1 mps 699 mmHg 68%
    20:00 +22°C° 0 mm 1 mps 699 mmHg 71%
    21:00 +21°C° 0 mm 1 mps 699 mmHg 73%
    22:00 +21°C° 0 mm 1 mps 699 mmHg 75%
    23:00 +21°C° 0 mm 1 mps 699 mmHg 76%
    Show more